Change the Weather History Date:

Monday, February 3, 2014

  Actual Average Record
Temperature  
Mean Temperature 10 °F 29 °F  
Max Temperature 22 °F 42 °F 75 °F (1962)
Min Temperature -3 °F 17 °F -17 °F (1989)
Degree Days  
Heating Degree Days 55 36  
Month to date heating degree days 166 108  
Cooling Degree Days 0 0  
Month to date cooling degree days 0 0  
Year to date cooling degree days 0 0  
Moisture  
Dew Point 7 °F    
Average Humidity 81    
Maximum Humidity 91    
Minimum Humidity 71    
Precipitation  
Precipitation 0.00 in 0.02 in 0.65 in (1903)
Sea Level Pressure  
Sea Level Pressure 30.10 in    
Wind  
Wind Speed 5 mph (ENE)    
Max Wind Speed 10 mph    
Max Gust Speed 12 mph    
Visibility 8 miles    
Events Fog    
T = Trace of Precipitation, MM = Missing Value Source: NWS Daily Summary

Daily Weather History Graph

Daily Weather History Graph

Search for Another Location

Airport or City:

Trip Planner

Search our weather history database for the weather conditions in past years. The results will help you decide how hot, cold, wet, or windy it might be!

Date:

Astronomy

Feb. 03, 2014 Rise Set
Actual Time 6:53 AM MST 5:07 PM MST
Civil Twilight 6:25 AM MST 5:35 PM MST
Nautical Twilight 5:52 AM MST 6:08 PM MST
Astronomical Twilight 5:20 AM MST 6:40 PM MST
Moon 8:56 AM MST (2/3) 10:01 PM MST (2/3)
Length of Visible Light 11h 10m
Length of Day
10h 13m
Waxing Crescent, 20% of the Moon is Illuminated
Feb 3
Waxing Crescent
Feb 6
First Quarter
Feb 14
Full
Feb 22
Last Quarter
Mar 1
New

Hourly Weather History & Observations

Time (MST) Temp. Windchill Dew Point Humidity Pressure Visibility Wind Dir Wind Speed Gust Speed Precip Events Conditions
12:06 AM 1.4 °F -6.2 °F -0.4 °F 92% 30.04 in 0.2 mi West 3.5 mph - N/A Fog Light Freezing Fog
12:37 AM 3.2 °F - 1.4 °F 92% 30.03 in 1.2 mi Calm Calm - N/A   Overcast
12:39 AM 1.4 °F - 1.4 °F 100% 30.02 in 3.0 mi Calm Calm - N/A   Overcast
12:53 AM -2.9 °F -11.2 °F -8.0 °F 79% 30.20 in 10.0 mi North 3.5 mph - N/A   Overcast
1:53 AM -0.0 °F - -2.9 °F 88% 30.19 in 7.0 mi Calm Calm - N/A   Mostly Cloudy
2:10 AM -0.4 °F -8.3 °F -5.8 °F 78% 30.02 in 7.0 mi NNW 3.5 mph - N/A   Partly Cloudy
2:41 AM -2.2 °F -14.2 °F -5.8 °F 85% 30.01 in 5.0 mi NNW 5.8 mph - N/A   Mostly Cloudy
2:51 AM -0.4 °F -12.0 °F -5.8 °F 78% 30.01 in 1.8 mi NNW 5.8 mph - N/A   Overcast
2:53 AM -0.9 °F -12.7 °F -5.1 °F 83% 30.18 in 1.2 mi North 5.8 mph - N/A   Overcast
3:09 AM -0.4 °F -10.4 °F -4.0 °F 85% 30.00 in 3.0 mi NNW 4.6 mph - N/A   Overcast
3:53 AM 1.9 °F - -2.0 °F 83% 30.16 in 6.0 mi Calm Calm - N/A   Scattered Clouds
4:53 AM 1.0 °F - -2.9 °F 83% 30.15 in 8.0 mi Calm Calm - N/A   Clear
5:53 AM 3.0 °F - -0.9 °F 84% 30.15 in 9.0 mi Calm Calm - N/A   Clear
6:53 AM 1.9 °F -7.6 °F -2.0 °F 83% 30.16 in 10.0 mi ENE 4.6 mph - N/A   Scattered Clouds
7:53 AM 7.0 °F -1.7 °F 3.0 °F 84% 30.15 in 9.0 mi ESE 4.6 mph - N/A   Overcast
8:53 AM 12.0 °F -0.4 °F 8.1 °F 84% 30.15 in 10.0 mi ESE 9.2 mph - N/A   Overcast
9:53 AM 14.0 °F 1.2 °F 8.1 °F 77% 30.14 in 10.0 mi ESE 10.4 mph - N/A   Overcast
10:53 AM 17.1 °F 5.8 °F 10.9 °F 77% 30.13 in 10.0 mi ESE 9.2 mph - N/A   Overcast
11:53 AM 19.9 °F 11.1 °F 12.9 °F 74% 30.12 in 10.0 mi SSE 6.9 mph - N/A   Overcast
12:37 PM 21.2 °F 12.6 °F 12.2 °F 68% 29.93 in 10.0 mi South 6.9 mph - N/A   Overcast
12:53 PM 19.9 °F 13.4 °F 14.0 °F 78% 30.12 in 10.0 mi SSW 4.6 mph - N/A   Overcast
1:45 PM 21.2 °F 16.4 °F 14.0 °F 74% 29.93 in 10.0 mi SSE 3.5 mph - N/A   Overcast
1:53 PM 21.0 °F - 14.0 °F 74% 30.10 in 10.0 mi Calm Calm - N/A   Overcast
2:53 PM 21.9 °F - 15.1 °F 75% 30.10 in 10.0 mi Calm Calm - N/A   Overcast
3:53 PM 21.9 °F 14.5 °F 15.1 °F 75% 30.10 in 10.0 mi SE 5.8 mph - N/A   Overcast
4:53 PM 21.0 °F 12.4 °F 15.1 °F 78% 30.12 in 10.0 mi SE 6.9 mph - N/A   Overcast
5:53 PM 19.9 °F 10.1 °F 15.1 °F 81% 30.14 in 10.0 mi SE 8.1 mph - N/A   Overcast
6:53 PM 19.9 °F - 14.0 °F 78% 30.17 in 10.0 mi Calm Calm - N/A   Overcast
7:42 PM 19.4 °F 12.8 °F 14.0 °F 80% 30.00 in 10.0 mi ENE 4.6 mph - N/A   Overcast
7:53 PM 19.9 °F 12.1 °F 15.1 °F 81% 30.16 in 10.0 mi NNE 5.8 mph - N/A   Overcast
8:53 PM 19.9 °F 11.1 °F 15.1 °F 81% 30.18 in 10.0 mi NNE 6.9 mph - N/A   Overcast
9:00 PM 19.4 °F 10.4 °F 15.8 °F 86% 30.03 in 10.0 mi NNE 6.9 mph - N/A   Overcast
9:53 PM 19.9 °F 12.1 °F 15.1 °F 81% 30.18 in 10.0 mi NE 5.8 mph - N/A   Overcast
10:53 PM 19.0 °F 10.0 °F 15.1 °F 85% 30.17 in 10.0 mi NNE 6.9 mph - N/A   Overcast
11:53 PM 19.0 °F 10.0 °F 14.0 °F 81% 30.17 in 10.0 mi NE 6.9 mph - N/A   Overcast